Weather History for KNID - August, 2014

Change the Weather History Date:

Friday, August 22, 2014

  Actual Average Record
Temperature  
Mean Temperature 82 °F -  
Max Temperature 100 °F 99 °F 109 °F (2007)
Min Temperature 66 °F 70 °F 55 °F (2002)
Cooling Degree Days 18    
Growing Degree Days 32 (Base 50)    
Moisture  
Dew Point 43 °F    
Average Humidity 26    
Maximum Humidity 49    
Minimum Humidity 10    
Precipitation  
Precipitation 0.00 in - - ()
Sea Level Pressure  
Sea Level Pressure 29.80 in    
Wind  
Wind Speed 10 mph (SSW)    
Max Wind Speed 30 mph    
Max Gust Speed 38 mph    
Visibility 10 miles    
Events      
Averages and records for this station are not official NWS values.
T = Trace of Precipitation, MM = Missing Value Source: NWS Daily Summary

Daily Weather History Graph

Daily Weather History Graph

Search for Another Location

Airport or City:

Trip Planner

Search our weather history database for the weather conditions in past years. The results will help you decide how hot, cold, wet, or windy it might be!

Date:

Astronomy

Aug. 22, 2014 Rise Set
Actual Time 6:15 AM PDT 7:31 PM PDT
Civil Twilight 5:48 AM PDT 7:57 PM PDT
Nautical Twilight 5:16 AM PDT 8:29 PM PDT
Astronomical Twilight 4:43 AM PDT 9:02 PM PDT
Moon 3:44 AM PDT (8/22) 5:41 PM PDT (8/22)
Length of Visible Light 14h 09m
Length of Day
13h 16m
Waning Crescent, 7% of the Moon is Illuminated
Aug 22
Waning Crescent
Aug 25
New
Sep 2
First Quarter
Sep 8
Full
Sep 15
Last Quarter

Hourly Weather History & Observations

Time (PDT) Temp. Dew Point Humidity Pressure Visibility Wind Dir Wind Speed Gust Speed Precip Events Conditions
12:56 AM 77.0 °F 48.0 °F 36% 29.87 in 10.0 mi SSW 8.1 mph - N/A   Clear
1:56 AM 77.0 °F 50.0 °F 39% 29.87 in 10.0 mi South 10.4 mph - N/A   Clear
2:56 AM 75.0 °F 48.0 °F 38% 29.87 in 10.0 mi SSW 9.2 mph - N/A   Clear
3:56 AM 73.0 °F 46.9 °F 39% 29.86 in 10.0 mi WSW 4.6 mph - N/A   Clear
4:56 AM 68.0 °F 46.9 °F 47% 29.87 in 10.0 mi WSW 5.8 mph - N/A   Clear
5:56 AM 66.9 °F 46.9 °F 49% 29.87 in 10.0 mi Calm Calm - N/A   Clear
6:56 AM 69.1 °F 48.0 °F 47% 29.89 in 10.0 mi West 5.8 mph - N/A   Clear
7:56 AM 75.9 °F 50.0 °F 40% 29.88 in 10.0 mi Calm Calm - N/A   Clear
8:56 AM 82.0 °F 48.9 °F 31% 29.87 in 10.0 mi Variable 3.5 mph - N/A   Clear
9:56 AM 84.9 °F 48.0 °F 28% 29.86 in 10.0 mi SE 4.6 mph - N/A   Clear
10:56 AM 89.1 °F 48.0 °F 24% 29.85 in 10.0 mi East 6.9 mph - N/A   Clear
11:56 AM 95.0 °F 42.1 °F 16% 29.82 in 10.0 mi WSW 6.9 mph 17.3 mph N/A   Clear
12:56 PM 96.1 °F 41.0 °F 15% 29.80 in 10.0 mi South 18.4 mph 25.3 mph N/A   Clear
1:56 PM 99.0 °F 39.9 °F 13% 29.76 in 10.0 mi SSW 19.6 mph 35.7 mph N/A   Clear
2:56 PM 99.0 °F 32.0 °F 10% 29.73 in 10.0 mi SW 21.9 mph 33.4 mph N/A   Clear
3:56 PM 98.1 °F 36.0 °F 11% 29.72 in 10.0 mi SW 24.2 mph 32.2 mph N/A   Clear
4:56 PM 96.1 °F 36.0 °F 12% 29.72 in 10.0 mi SW 26.5 mph 38.0 mph N/A   Clear
5:56 PM 93.0 °F 39.9 °F 16% 29.71 in 10.0 mi SW 29.9 mph 36.8 mph N/A   Clear
6:56 PM 91.0 °F 39.0 °F 16% 29.72 in 10.0 mi SSW 25.3 mph 32.2 mph N/A   Clear
7:56 PM 87.1 °F 39.0 °F 18% 29.72 in 10.0 mi SSW 13.8 mph 23.0 mph N/A   Clear
8:56 PM 84.9 °F 39.0 °F 20% 29.73 in 10.0 mi SW 9.2 mph 23.0 mph N/A   Clear
9:56 PM 84.0 °F 37.9 °F 19% 29.75 in 10.0 mi Calm Calm - N/A   Clear
10:56 PM 82.0 °F 41.0 °F 23% 29.75 in 10.0 mi SSE 6.9 mph - N/A   Clear
11:56 PM 82.9 °F 39.0 °F 21% 29.76 in 10.0 mi Calm Calm - N/A   Clear